Sigfox identifier Datetime Temperature Humidity SNR
002F8B93 2019-04-23 14:41:33 16 32 22.5
002F8B93 2019-04-23 14:08:00 15.9 32 22.6
002F8B93 2019-04-23 13:34:26 15.7 32 22.6
002F8B93 2019-04-23 13:00:54 15.7 31 22.6
002F8B93 2019-04-23 12:27:19 15.7 31 22.6
002F8B93 2019-04-23 11:53:46 15.6 31 22.5
002F8B93 2019-04-23 11:20:10 15.5 31 22.3
002F8B93 2019-04-23 10:46:36 15.6 31 22.2
002F8B93 2019-04-23 10:13:02 15.6 31 22.1
002F8B93 2019-04-23 09:39:27 15.5 31 21.9
002F8B93 2019-04-23 09:05:53 15.5 31 21.8
002F8B93 2019-04-23 08:32:18 15.5 31 21.6
002F8B93 2019-04-23 07:58:43 15.5 31 21.4
002F8B93 2019-04-23 07:25:08 15.6 31 21.5
002F8B93 2019-04-23 06:51:33 15.6 31 21.6
002F8B93 2019-04-23 06:17:59 15.6 31 21.5
002F8B93 2019-04-23 05:44:25 15.5 31 21.6
002F8B93 2019-04-23 05:10:51 15.6 31 21.8
002F8B93 2019-04-23 04:37:18 15.6 31 21.8
002F8B93 2019-04-23 04:03:44 15.6 31 21.9
002F8B93 2019-04-23 03:30:10 15.6 31 21.9
002F8B93 2019-04-23 02:56:36 15.7 31 21.9
002F8B93 2019-04-23 02:23:03 15.7 31 21.9
002F8B93 2019-04-23 01:49:29 15.7 31 22
002F8B93 2019-04-23 01:15:53 15.7 31 22
002F8B93 2019-04-23 00:42:19 15.7 31 22
002F8B93 2019-04-23 00:08:44 15.7 31 21.9
002F8B93 2019-04-22 23:35:11 15.7 31 21.8
002F8B93 2019-04-22 23:01:38 15.7 31 21.8
002F8B93 2019-04-22 22:28:05 15.7 31 21.8
002F8B93 2019-04-22 21:54:32 15.9 31 21.8
002F8B93 2019-04-22 21:20:59 15.9 31 21.8
002F8B93 2019-04-22 20:47:25 15.9 31 21.9
002F8B93 2019-04-22 20:13:52 15.9 31 21.8
002F8B93 2019-04-22 19:40:19 16 31 21.8
002F8B93 2019-04-22 19:06:45 16 31 21.8
002F8B93 2019-04-22 18:33:12 15.9 31 21.9
002F8B93 2019-04-22 17:59:38 15.8 31 21.9
002F8B93 2019-04-22 17:26:03 15.9 30 21.8
002F8B93 2019-04-22 16:52:28 15.7 31 21.7
002F8B93 2019-04-22 16:18:54 15.7 30 21.7
002F8B93 2019-04-22 15:45:19 15.7 30 21.7
002F8B93 2019-04-22 15:11:45 15.7 30 21.5
002F8B93 2019-04-22 14:38:12 15.7 30 21.4
002F8B93 2019-04-22 14:04:38 15.7 30 21.3
002F8B93 2019-04-22 13:31:05 15.7 30 21.3
002F8B93 2019-04-22 12:57:31 15.7 30 21.4
002F8B93 2019-04-22 12:23:57 15.6 30 21.4
002F8B93 2019-04-22 11:50:22 15.7 30 21.4
002F8B93 2019-04-22 11:16:49 15.6 30 21.3
002F8B93 2019-04-22 10:43:14 15.5 30 21.4
002F8B93 2019-04-22 10:09:40 15.5 30 21.5
002F8B93 2019-04-22 09:36:07 15.5 30 21.6
002F8B93 2019-04-22 09:02:34 15.5 30 21.6
002F8B93 2019-04-22 08:29:01 15.6 30 21.7
002F8B93 2019-04-22 07:55:27 15.6 30 21.7
002F8B93 2019-04-22 07:21:54 15.5 30 21.7
002F8B93 2019-04-22 06:48:20 15.5 30 21.7
002F8B93 2019-04-22 06:14:45 15.5 30 21.8
002F8B93 2019-04-22 05:41:11 15.6 30 21.8
002F8B93 2019-04-22 05:07:37 15.6 30 21.7
002F8B93 2019-04-22 04:34:03 15.5 30 21.7
002F8B93 2019-04-22 04:00:28 15.5 30 21.7
002F8B93 2019-04-22 03:26:54 15.6 30 21.8
002F8B93 2019-04-22 02:53:21 15.5 30 21.9
002F8B93 2019-04-22 02:19:47 15.5 30 21.9
002F8B93 2019-04-22 01:46:13 15.5 30 21.9
002F8B93 2019-04-22 01:12:39 15.5 30 21.9
002F8B93 2019-04-22 00:39:04 15.5 30 21.9
002F8B93 2019-04-22 00:05:29 15.5 30 21.9
002F8B93 2019-04-21 23:31:56 15.5 30 21.8
002F8B93 2019-04-21 22:58:21 15.5 30 21.8
002F8B93 2019-04-21 22:24:47 15.5 30 21.8
002F8B93 2019-04-21 21:51:13 15.5 30 21.8
002F8B93 2019-04-21 21:17:39 15.5 30 21.8
002F8B93 2019-04-21 20:44:05 15.5 30 21.7
002F8B93 2019-04-21 20:10:32 15.5 29 21.7
002F8B93 2019-04-21 19:36:58 15.5 29 21.7
002F8B93 2019-04-21 19:03:24 15.5 29 21.6
002F8B93 2019-04-21 18:29:51 15.5 29 21.5
002F8B93 2019-04-21 17:56:17 15.5 29 21.5
002F8B93 2019-04-21 17:22:44 15.5 29 21.6
002F8B93 2019-04-21 16:49:10 15.4 29 21.6
002F8B93 2019-04-21 16:15:37 15.5 29 21.6
002F8B93 2019-04-21 15:42:03 15.5 29 21.6
002F8B93 2019-04-21 15:08:30 15.5 29 21.6
002F8B93 2019-04-21 14:34:57 15.5 29 21.7
002F8B93 2019-04-21 14:01:23 15.5 29 21.7
002F8B93 2019-04-21 13:27:49 15.5 29 21.7
002F8B93 2019-04-21 12:54:16 15.5 29 21.6
002F8B93 2019-04-21 12:20:42 15.5 29 21.6
002F8B93 2019-04-21 11:47:07 15.5 29 21.6
002F8B93 2019-04-21 11:13:33 15.5 29 21.6
002F8B93 2019-04-21 10:40:00 15.5 29 21.7
002F8B93 2019-04-21 10:06:26 15.5 29 21.7
002F8B93 2019-04-21 09:32:52 15.6 29 21.7
002F8B93 2019-04-21 08:59:18 15.6 29 21.7
002F8B93 2019-04-21 08:25:45 15.6 29 21.6
002F8B93 2019-04-21 07:52:11 15.6 29 21.5
002F8B93 2019-04-21 07:18:37 15.6 29 21.5
002F8B93 2019-04-21 06:45:05 15.6 29 21.5
002F8B93 2019-04-21 06:11:31 15.5 29 21.5
002F8B93 2019-04-21 05:37:57 15.5 29 21.6
002F8B93 2019-04-21 05:04:23 15.5 29 21.6
002F8B93 2019-04-21 04:30:49 15.5 29 21.7
002F8B93 2019-04-21 03:57:15 15.5 29 21.6
002F8B93 2019-04-21 03:23:41 15.5 29 21.6
002F8B93 2019-04-21 02:50:09 15.5 29 21.5
002F8B93 2019-04-21 02:16:36 15.5 29 21.4
002F8B93 2019-04-21 01:43:03 15.5 29 21.5
002F8B93 2019-04-21 01:09:29 15.5 29 21.5
002F8B93 2019-04-21 00:35:56 15.5 29 21.4
002F8B93 2019-04-21 00:02:22 15.5 29 21.4
002F8B93 2019-04-20 23:28:48 15.5 28 21.4
002F8B93 2019-04-20 22:55:14 15.5 28 21.5
002F8B93 2019-04-20 22:21:40 15.5 28 21.4
002F8B93 2019-04-20 21:48:06 15.5 28 21.4
002F8B93 2019-04-20 21:14:31 15.5 28 21.4
002F8B93 2019-04-20 20:40:56 15.5 28 21.3
002F8B93 2019-04-20 20:07:22 15.6 28 21.5
002F8B93 2019-04-20 19:33:47 15.6 28 21.5
002F8B93 2019-04-20 19:00:13 15.6 28 21.5
002F8B93 2019-04-20 18:26:39 15.5 28 21.6
002F8B93 2019-04-20 17:53:05 15.5 28 21.7
002F8B93 2019-04-20 17:19:31 15.6 28 21.7
002F8B93 2019-04-20 16:45:56 15.5 28 21.7
002F8B93 2019-04-20 16:12:22 15.5 28 21.7
002F8B93 2019-04-20 15:38:49 15.5 28 21.7
002F8B93 2019-04-20 15:05:15 15.5 28 21.6
002F8B93 2019-04-20 14:31:41 15.6 28 21.6
002F8B93 2019-04-20 13:58:08 15.5 28 21.5
002F8B93 2019-04-20 13:24:34 15.6 28 21.6
002F8B93 2019-04-20 12:50:59 15.5 28 21.6
002F8B93 2019-04-20 12:17:26 15.6 28 21.6
002F8B93 2019-04-20 11:43:52 15.6 28 21.6
002F8B93 2019-04-20 11:10:18 15.7 28 21.6
002F8B93 2019-04-20 10:36:45 15.7 28 21.7
002F8B93 2019-04-20 10:03:11 15.7 28 21.7
002F8B93 2019-04-20 09:29:38 15.7 28 21.7
002F8B93 2019-04-20 08:56:04 15.7 28 21.6
002F8B93 2019-04-20 08:22:31 15.7 28 21.7
002F8B93 2019-04-20 07:48:57 15.7 28 21.8
002F8B93 2019-04-20 07:15:24 15.7 28 21.8
002F8B93 2019-04-20 06:41:50 15.7 28 21.9
002F8B93 2019-04-20 06:08:17 15.7 28 21.7
002F8B93 2019-04-20 05:34:43 15.8 28 21.8
002F8B93 2019-04-20 05:01:10 15.7 27 21.8
002F8B93 2019-04-20 04:27:35 15.7 27 21.9
002F8B93 2019-04-20 03:54:01 15.9 27 21.9
002F8B93 2019-04-20 03:20:27 15.9 27 21.8
002F8B93 2019-04-20 02:46:53 15.9 27 21.8
002F8B93 2019-04-20 02:13:19 15.9 27 21.8
002F8B93 2019-04-20 01:39:45 15.9 27 21.8
002F8B93 2019-04-20 01:06:10 15.9 27 21.9
002F8B93 2019-04-20 00:32:37 16 27 21.8
002F8B93 2019-04-19 23:59:02 16 27 21.7
002F8B93 2019-04-19 23:25:28 16 27 21.8
002F8B93 2019-04-19 22:51:57 16.1 27 21.8
002F8B93 2019-04-19 22:18:22 16.1 27 21.7
002F8B93 2019-04-19 21:44:45 16.1 27 21.7
002F8B93 2019-04-19 21:11:11 16.1 27 21.7
002F8B93 2019-04-19 20:37:38 16.1 27 21.6
002F8B93 2019-04-19 20:04:04 16.2 27 21.6
002F8B93 2019-04-19 19:30:29 16.1 27 21.5
002F8B93 2019-04-19 18:56:55 16.2 27 21.5
002F8B93 2019-04-19 18:23:22 16.1 27 21.5
002F8B93 2019-04-19 17:49:47 16 27 21.4
002F8B93 2019-04-19 17:16:12 16 27 21.4
002F8B93 2019-04-19 16:42:37 16 27 21.4
002F8B93 2019-04-19 16:09:03 15.9 27 21.5
002F8B93 2019-04-19 15:35:28 15.9 27 21.4
002F8B93 2019-04-19 15:01:55 15.9 27 21.5
002F8B93 2019-04-19 14:28:21 16 27 21.4
002F8B93 2019-04-19 13:54:47 15.9 27 21.2
002F8B93 2019-04-19 13:21:13 15.9 27 21.4
002F8B93 2019-04-19 12:47:40 15.9 27 21.4
002F8B93 2019-04-19 12:14:06 15.9 27 21.3
002F8B93 2019-04-19 11:40:32 15.9 27 21.3
002F8B93 2019-04-19 11:06:59 15.8 26 21.2
002F8B93 2019-04-19 10:33:26 15.9 26 21.4
002F8B93 2019-04-19 09:59:52 16 26 21.5
002F8B93 2019-04-19 09:26:18 15.9 26 21.5
002F8B93 2019-04-19 08:52:44 15.9 26 21.5
002F8B93 2019-04-19 08:19:09 16 26 21.5
002F8B93 2019-04-19 07:45:34 15.9 26 21.5
002F8B93 2019-04-19 07:12:01 16 26 21.5
002F8B93 2019-04-19 06:38:26 16 26 21.5
002F8B93 2019-04-19 06:04:55 15.9 26 21.6
002F8B93 2019-04-19 05:31:18 16 26 21.8
002F8B93 2019-04-19 04:57:44 16.1 26 21.9
002F8B93 2019-04-19 04:24:09 16.1 26 21.9
002F8B93 2019-04-19 03:50:36 16.2 26 22
002F8B93 2019-04-19 03:17:02 16.1 26 22.1
002F8B93 2019-04-19 02:43:28 16.2 26 22
002F8B93 2019-04-19 02:09:55 16.3 26 21.9
002F8B93 2019-04-19 01:36:21 16.3 26 22
002F8B93 2019-04-19 01:02:48 16.4 26 22.3
002F8B93 2019-04-19 00:29:13 16.3 26 22.3
002F8B93 2019-04-18 23:55:40 16.4 26 22.5
002F8B93 2019-04-18 23:22:06 16.5 26 22.5
002F8B93 2019-04-18 22:48:32 16.6 26 22.7
002F8B93 2019-04-18 22:14:58 16.6 26 22.9
002F8B93 2019-04-18 21:41:24 16.6 26 22.8
002F8B93 2019-04-18 21:07:50 16.5 26 22.8
002F8B93 2019-04-18 20:34:14 16.6 26 22.7
002F8B93 2019-04-18 20:00:39 16.6 26 22.7
002F8B93 2019-04-18 19:27:05 16.5 26 22.6
002F8B93 2019-04-18 18:53:30 16.5 26 22.7
002F8B93 2019-04-18 18:19:56 16.4 26 22.8
002F8B93 2019-04-18 17:46:22 16.4 26 22.8
002F8B93 2019-04-18 17:12:47 16.3 26 22.8
002F8B93 2019-04-18 16:39:13 16.4 26 22.9
002F8B93 2019-04-18 16:05:40 16.4 25 22.7
002F8B93 2019-04-18 15:32:06 16.3 25 22.7
002F8B93 2019-04-18 14:58:32 16.2 25 22.5
002F8B93 2019-04-18 14:24:58 16.2 25 22.5
002F8B93 2019-04-18 13:51:22 16.1 25 22.4
002F8B93 2019-04-18 13:17:47 16.2 25 22.2
002F8B93 2019-04-18 12:44:11 16.1 25 22.3
002F8B93 2019-04-18 12:10:35 16.2 25 22.3
002F8B93 2019-04-18 11:37:01 16.1 25 22
002F8B93 2019-04-18 11:03:27 16.2 25 21.6
002F8B93 2019-04-18 10:29:53 16.1 25 21.5
002F8B93 2019-04-18 09:56:18 16.2 25 21.2
002F8B93 2019-04-18 09:22:44 16.1 25 21.1
002F8B93 2019-04-18 08:49:12 16.3 25 20.7
002F8B93 2019-04-18 08:15:38 16.1 25 20.4
002F8B93 2019-04-18 07:42:04 16.4 25 20.4
002F8B93 2019-04-18 07:08:29 16.3 25 20.3
002F8B93 2019-04-18 06:34:55 16.2 25 20.2
002F8B93 2019-04-18 06:01:20 16.3 24 20.3
002F8B93 2019-04-18 05:27:46 16.3 24 20.5
002F8B93 2019-04-18 04:54:11 16.3 24 20.5
002F8B93 2019-04-18 04:20:36 16.4 24 20.5
002F8B93 2019-04-18 03:47:01 16.4 24 20.4
002F8B93 2019-04-18 03:13:27 16.4 24 20.3
002F8B93 2019-04-18 02:39:54 16.4 24 20.2
002F8B93 2019-04-18 02:06:20 16.6 24 20
002F8B93 2019-04-18 01:32:48 16.6 24 20
002F8B93 2019-04-18 00:59:11 16.6 24 19.9
002F8B93 2019-04-18 00:25:37 16.6 24 19.8
002F8B93 2019-04-17 23:52:02 16.6 24 19.8
002F8B93 2019-04-17 23:18:28 16.7 24 19.9
002F8B93 2019-04-17 22:44:55 16.7 24 19.8
002F8B93 2019-04-17 22:11:21 16.7 24 19.6
002F8B93 2019-04-17 21:37:50 16.6 24 19.8
002F8B93 2019-04-17 21:04:15 16.6 24 20.1
002F8B93 2019-04-17 20:30:41 16.6 24 20.2
002F8B93 2019-04-17 19:57:07 16.6 24 20.2
002F8B93 2019-04-17 19:23:35 16.6 24 20.4
002F8B93 2019-04-17 18:50:01 16.6 23 20.5
002F8B93 2019-04-17 18:16:27 16.6 23 20.6
002F8B93 2019-04-17 17:42:53 16.6 23 20.7
002F8B93 2019-04-17 17:09:19 16.6 23 20.8
002F8B93 2019-04-17 16:35:46 16.6 23 20.9
002F8B93 2019-04-17 16:02:13 16.6 23 20.7
002F8B93 2019-04-17 15:28:40 16.8 23 20.4
002F8B93 2019-04-17 14:55:06 16.8 23 21.6
002F8B93 2019-04-17 14:21:32 16.8 23 21.5
002F8B93 2019-04-17 13:47:57 16.8 23 21.7
002F8B93 2019-04-17 13:14:23 16.8 23 21.7
002F8B93 2019-04-17 12:40:49 16.8 23 21.7
002F8B93 2019-04-17 12:07:14 17 23 21.7
002F8B93 2019-04-17 11:33:39 17.1 23 21.6
002F8B93 2019-04-17 11:00:05 17 23 21.5
002F8B93 2019-04-17 10:26:31 17 22 21.5
002F8B93 2019-04-17 09:52:58 17.2 22 21.4
002F8B93 2019-04-17 09:19:24 17.3 22 21.3
002F8B93 2019-04-17 08:45:50 17.4 22 21.2
002F8B93 2019-04-17 08:12:17 17.5 22 21.2
002F8B93 2019-04-17 07:38:43 17.7 22 21.1
002F8B93 2019-04-17 07:05:09 17.8 22 21.2
002F8B93 2019-04-17 06:31:36 17.9 22 21.2
002F8B93 2019-04-17 05:58:01 17.9 22 21.3
002F8B93 2019-04-17 05:24:28 17.8 22 21.2
002F8B93 2019-04-17 04:50:55 18 22 21.4
002F8B93 2019-04-17 04:17:22 18.1 22 21.3
002F8B93 2019-04-17 03:43:48 18.1 22 21.4
002F8B93 2019-04-17 03:10:16 18.1 22 21.6
002F8B93 2019-04-17 02:36:42 18.1 22 21.7
002F8B93 2019-04-17 02:03:07 18.2 22 21.6
002F8B93 2019-04-17 01:29:33 18.3 22 21.5
002F8B93 2019-04-17 00:55:59 18.3 22 20.4
002F8B93 2019-04-17 00:22:25 18.3 22 20.2
002F8B93 2019-04-16 23:48:51 18.4 21 20.1
002F8B93 2019-04-16 23:15:18 18.5 21 19.9
002F8B93 2019-04-16 22:41:44 18.7 21 19.7
002F8B93 2019-04-16 22:08:12 18.9 21 19.9
002F8B93 2019-04-16 21:34:38 19 21 20.3
002F8B93 2019-04-16 21:01:04 19.2 22 20.4
002F8B93 2019-04-16 20:27:31 19.2 21 20.6
002F8B93 2019-04-16 19:53:57 19.4 22 20.8
002F8B93 2019-04-16 19:20:22 19.4 21 21
002F8B93 2019-04-16 18:46:47 19.5 21 21.2
002F8B93 2019-04-16 18:13:12 19.7 21 21.5
002F8B93 2019-04-16 17:06:05 20 21 21.7
002F8B93 2019-04-16 15:58:57 20.4 21 21.7
002F8B93 2019-04-16 15:25:22 20.6 21 21.8
002F8B93 2019-04-16 14:51:48 20.8 21 21.7
002F8B93 2019-04-16 14:18:14 20.9 22 21.9
002F8B93 2019-04-16 13:44:40 20.9 22 21.7
002F8B93 2019-04-16 13:11:06 20.9 22 21.7
002F8B93 2019-04-16 12:37:29 20.9 22 21.7
002F8B93 2019-04-16 12:03:55 20.9 22 21.7
002F8B93 2019-04-16 11:30:21 20.9 22 21.5
002F8B93 2019-04-16 10:56:47 20.8 22 21.7
002F8B93 2019-04-16 10:23:13 20.8 22 21.7
002F8B93 2019-04-16 09:49:39 20.9 22 21.5
002F8B93 2019-04-16 09:16:05 20.8 22 21.8
002F8B93 2019-04-16 08:42:32 20.8 22 21.7
002F8B93 2019-04-16 08:08:56 20.8 21 21.9
002F8B93 2019-04-16 07:35:23 20.8 21 21.9
002F8B93 2019-04-16 07:01:50 20.8 21 21.8
002F8B93 2019-04-16 06:28:17 20.9 21 21.7
002F8B93 2019-04-16 05:54:43 20.9 21 21.8
002F8B93 2019-04-16 05:21:10 20.8 21 21.7
002F8B93 2019-04-16 04:47:36 20.9 21 21.5
002F8B93 2019-04-16 04:14:03 20.8 21 21.5
002F8B93 2019-04-16 03:40:30 20.8 21 21.2
002F8B93 2019-04-16 03:06:55 20.9 21 20.9
002F8B93 2019-04-16 02:33:21 20.8 21 20.6
002F8B93 2019-04-16 01:59:47 20.9 21 20.6
002F8B93 2019-04-16 01:26:12 20.9 20 20.8
002F8B93 2019-04-16 00:52:38 20.9 20 20.8
002F8B93 2019-04-16 00:19:03 20.9 20 20.5
002F8B93 2019-04-15 23:45:29 20.9 20 21
002F8B93 2019-04-15 23:11:54 21 20 21.1
002F8B93 2019-04-15 22:38:19 21.1 20 21.1
002F8B93 2019-04-15 22:04:44 21 20 20.9
002F8B93 2019-04-15 21:31:09 21.1 20 21
002F8B93 2019-04-15 20:57:34 21.1 20 21.2
002F8B93 2019-04-15 20:23:59 21.1 20 22.4
002F8B93 2019-04-15 19:50:25 21.1 19 22.6
002F8B93 2019-04-15 19:16:49 21.1 19 22.8
002F8B93 2019-04-15 18:43:14 21.3 19 22.9
002F8B93 2019-04-15 18:09:40 21.3 19 23.1
002F8B93 2019-04-15 17:36:05 21.3 19 23.4
002F8B93 2019-04-15 17:02:30 21.5 19 23.7
002F8B93 2019-04-15 16:28:56 21.5 19 23.9
002F8B93 2019-04-15 15:55:22 21.7 19 23.9
002F8B93 2019-04-15 15:21:49 21.7 18 24.1
002F8B93 2019-04-15 14:48:14 21.9 18 24.5
002F8B93 2019-04-15 14:14:40 21.9 18 24.7
002F8B93 2019-04-15 13:41:05 22.2 18 24.7
002F8B93 2019-04-15 13:07:30 22.2 18 24.8
002F8B93 2019-04-15 12:33:55 22.3 18 24.9
002F8B93 2019-04-15 12:00:22 22.6 17 24.9
002F8B93 2019-04-15 11:26:47 22.5 16 25.2
002F8B93 2019-04-15 10:53:12 22.3 16 25.4
002F8B93 2019-04-15 10:19:37 22.4 16 25.6
002F8B93 2019-04-15 09:46:03 22.4 16 25.5
002F8B93 2019-04-15 09:12:29 22.3 17 25.6
002F8B93 2019-04-15 08:38:55 22.2 16 25.7
002F8B93 2019-04-15 08:05:20 22.1 16 26.1
002F8B93 2019-04-15 07:31:46 21.9 16 26.2
002F8B93 2019-04-15 06:58:11 21.9 17 26.2
002F8B93 2019-04-15 06:24:36 21.9 17 25.8
002F8B93 2019-04-15 05:51:02 21.9 17 25.8
002F8B93 2019-04-15 05:17:27 21.9 17 25.8
002F8B93 2019-04-15 04:43:53 21.9 17 25.8
002F8B93 2019-04-15 04:10:19 21.9 17 25.7
002F8B93 2019-04-15 03:36:44 21.9 17 25.6
002F8B93 2019-04-15 03:03:09 21.9 17 25.6
002F8B93 2019-04-15 02:29:36 21.9 17 25.5
002F8B93 2019-04-15 01:56:03 21.9 17 25.9
002F8B93 2019-04-15 01:22:28 21.9 17 26.2
002F8B93 2019-04-15 00:48:53 21.9 17 26.1
002F8B93 2019-04-15 00:15:19 21.9 17 26.4
002F8B93 2019-04-14 23:41:44 21.8 17 26.4
002F8B93 2019-04-14 23:08:11 21.8 17 26.8
002F8B93 2019-04-14 22:34:37 21.8 17 26.8
002F8B93 2019-04-14 22:01:03 21.9 17 26.8
002F8B93 2019-04-14 21:27:30 22 18 26.5
002F8B93 2019-04-14 20:53:56 22 18 26.5
002F8B93 2019-04-14 20:20:23 22.1 18 26.5
002F8B93 2019-04-14 19:46:49 22.1 18 26.4
002F8B93 2019-04-14 19:13:15 22.2 18 26.4
002F8B93 2019-04-14 18:39:40 22.2 18 26.4
002F8B93 2019-04-14 18:06:07 22 17 26.1
002F8B93 2019-04-14 17:32:32 21.9 18 26.1
002F8B93 2019-04-14 16:58:58 21.9 17 26.1
002F8B93 2019-04-14 16:25:23 21.9 17 26.2
002F8B93 2019-04-14 15:51:47 21.9 18 26.2
002F8B93 2019-04-14 15:18:11 21.9 18 26.1
002F8B93 2019-04-14 14:44:35 21.9 18 26.2
002F8B93 2019-04-14 14:11:01 21.9 18 26.2
002F8B93 2019-04-14 13:37:25 21.9 18 26.3
002F8B93 2019-04-14 13:03:49 21.9 18 26.4
002F8B93 2019-04-14 12:30:13 21.9 18 26.4
002F8B93 2019-04-14 11:56:38 21.9 18 26
002F8B93 2019-04-14 11:23:03 21.9 18 25.6
002F8B93 2019-04-14 10:49:28 22 18 25.9
002F8B93 2019-04-14 10:15:53 21.9 18 25.6
002F8B93 2019-04-14 09:42:18 21.9 18 25.5
002F8B93 2019-04-14 09:08:44 21.9 18 25.1
002F8B93 2019-04-14 08:35:08 21.9 18 25
002F8B93 2019-04-14 08:01:33 21.9 18 25.1
002F8B93 2019-04-14 07:27:58 21.9 17 25.1
002F8B93 2019-04-14 06:54:23 21.9 17 25
002F8B93 2019-04-14 06:20:50 21.9 17 25
002F8B93 2019-04-14 05:47:16 21.9 17 25.1
002F8B93 2019-04-14 05:13:42 21.9 17 25.1
002F8B93 2019-04-14 04:40:08 21.9 17 25.1
002F8B93 2019-04-14 04:06:35 21.9 17 25.1
002F8B93 2019-04-14 03:33:00 22 17 25.1
002F8B93 2019-04-14 02:59:26 22 17 25
002F8B93 2019-04-14 02:25:52 22 17 24.9
002F8B93 2019-04-14 01:52:18 22 17 24.9
002F8B93 2019-04-14 01:18:43 22 17 25
002F8B93 2019-04-14 00:45:08 22 18 24.9
002F8B93 2019-04-14 00:11:33 22.1 17 24.8
002F8B93 2019-04-13 23:37:58 22 17 25.1
002F8B93 2019-04-13 23:04:21 22.2 17 25
002F8B93 2019-04-13 22:30:46 22.1 17 25.4
002F8B93 2019-04-13 21:57:10 22.2 17 25.4
002F8B93 2019-04-13 21:23:34 22.1 17 25.4
002F8B93 2019-04-13 20:49:58 22.1 17 25
002F8B93 2019-04-13 20:16:22 22.1 17 24.9
002F8B93 2019-04-13 19:42:47 22.1 17 24.9
002F8B93 2019-04-13 19:09:12 22.1 17 25
002F8B93 2019-04-13 18:35:36 22.2 17 25.1
002F8B93 2019-04-13 18:02:00 22.2 17 25.1
002F8B93 2019-04-13 17:28:25 22.2 17 25.1
002F8B93 2019-04-13 16:54:52 22.2 17 25
002F8B93 2019-04-13 16:21:18 22.3 17 25.1
002F8B93 2019-04-13 15:47:42 22.4 17 25
002F8B93 2019-04-13 15:14:08 22.3 17 25
002F8B93 2019-04-13 14:40:33 22.3 17 24.9
002F8B93 2019-04-13 14:06:59 22.4 17 24.8
002F8B93 2019-04-13 13:33:25 22.4 17 24.9
002F8B93 2019-04-13 12:59:51 22.4 17 24.9
002F8B93 2019-04-13 12:26:18 22.4 17 24.9
002F8B93 2019-04-13 11:52:42 22.4 17 24.9
002F8B93 2019-04-13 11:19:08 22.4 17 24.8
002F8B93 2019-04-13 10:45:33 22.3 17 25
002F8B93 2019-04-13 10:11:57 22.4 17 25.1
002F8B93 2019-04-13 09:38:21 22.3 17 24.7
002F8B93 2019-04-13 09:04:46 22.4 17 24.7
002F8B93 2019-04-13 08:31:11 22.3 17 24.3
002F8B93 2019-04-13 07:57:37 22.3 17 24.3
002F8B93 2019-04-13 07:24:02 22.3 17 24.4
002F8B93 2019-04-13 06:50:27 22.4 17 24.4
002F8B93 2019-04-13 06:16:52 22.3 17 24.5
002F8B93 2019-04-13 05:43:18 22.4 17 24.5
002F8B93 2019-04-13 05:09:42 22.4 17 24.4
002F8B93 2019-04-13 04:36:07 22.3 17 24.8
002F8B93 2019-04-13 04:02:33 22.3 17 25.2
002F8B93 2019-04-13 03:28:59 22.5 17 25.1
002F8B93 2019-04-13 02:55:24 22.4 17 25.1
002F8B93 2019-04-13 02:21:48 22.4 17 25
002F8B93 2019-04-13 01:48:13 22.6 17 25.1
002F8B93 2019-04-13 01:14:37 22.6 17 25.1
002F8B93 2019-04-13 00:41:02 22.5 17 25.3
002F8B93 2019-04-13 00:07:26 22.5 18 25.3
002F8B93 2019-04-12 23:33:50 22.5 18 25.3
002F8B93 2019-04-12 23:00:15 22.6 18 25.4
002F8B93 2019-04-12 22:26:40 22.8 18 25.4
002F8B93 2019-04-12 21:53:05 22.8 18 25.5
002F8B93 2019-04-12 21:19:30 22.8 18 25.7
002F8B93 2019-04-12 20:45:54 22.8 18 25.6
002F8B93 2019-04-12 20:12:19 22.8 17 25.5
002F8B93 2019-04-12 19:38:44 22.8 17 25.5
002F8B93 2019-04-12 19:05:08 22.8 17 25.7
002F8B93 2019-04-12 18:31:32 23 16 25.6
002F8B93 2019-04-12 17:57:57 23.2 16 25.9
002F8B93 2019-04-12 17:24:21 23.2 17 25.9
002F8B93 2019-04-12 16:50:47 23.2 17 26.2
002F8B93 2019-04-12 16:17:12 23.4 18 26.3
002F8B93 2019-04-12 15:43:38 23.3 18 26.7
002F8B93 2019-04-12 15:10:03 23.2 18 27.2
002F8B93 2019-04-12 14:36:28 22.9 18 25.6
002F8B93 2019-04-12 14:02:53 22.8 19 16.9
002F8B93 2019-04-12 13:29:18 22 20 9.4
002F8B93 2019-04-12 12:55:43 20.5 33 0